Regional Weather Roundup
Issued by NWS

Home | Current Version | Previous Version | Graphics & Text | Print | Product List | Glossary On
Versions: 1 2 3 4 5 6 7 8 9 10 11 12 13 14 15 16 17 18 19 20 21 22 23 24 25 26 27 28 29 30 31 32 33 34 35 36 37 38 39 40 41 42 43 44 45 46 47 48 49 50
000
ASUS43 KOAX 051510
RWRNE

WEATHER ROUNDUP FOR NEBRASKA
NATIONAL WEATHER SERVICE OMAHA NE
1000 AM CDT THU MAY 05 2016

NOTES: SATELLITE DATA IS BEING USED TO AUGMENT CLOUD COVER ABOVE
       12000 FEET.
       "FAIR" INDICATES FEW OR NO CLOUDS BELOW 12,000 FEET WITH NO
       SIGNIFICANT WEATHER AND/OR OBSTRUCTIONS TO VISIBILITY.

  * THESE STATIONS DO NOT REPORT WEATHER SUCH AS RAIN...SNOW OR FOG.

NEZ001>004-019>022-054>056-051600-
NEBRASKA PANHANDLE

CITY           SKY/WX    TMP DP  RH WIND       PRES   REMARKS
SCOTTSBLUFF    CLOUDY    64  45  49 SE6       30.06S
ALLIANCE       SUNNY     65  47  52 S10       30.05F
CHADRON        SUNNY     68  45  43 W10       30.00S
KIMBALL        CLOUDY    64  44  48 SW9       30.11F
SIDNEY         CLOUDY    69  40  34 SW15      30.10R
$$

NEZ057>060-069>072-079>082-051600-
SOUTHWEST NEBRASKA

CITY           SKY/WX    TMP DP  RH WIND       PRES   REMARKS
NORTH PLATTE   SUNNY     62  48  60 VRB3      30.10F
IMPERIAL       SUNNY     66  47  50 S8        30.10F
MCCOOK         SUNNY     61  48  62 CALM      30.11F
OGALLALA       SUNNY     64  44  47 SW9       30.10S
$$

NEZ005>010-023>029-035>040-094-051600-
NORTH CENTRAL NEBRASKA

CITY           SKY/WX    TMP DP  RH WIND       PRES   REMARKS
VALENTINE      SUNNY     68  41  37 SW10      30.05F
AINSWORTH      SUNNY     70  45  41 S12       30.07S
BROKEN BOW     SUNNY     65  43  44 SW7       30.10S
O`NEILL        SUNNY     67  42  39 SW10      30.08S
ORD            SUNNY     63  44  50 S8        30.10S
THEDFORD       SUNNY     67  45  43 S8        30.09S
$$

NEZ041-046>049-061>064-073>077-083>087-051600-
SOUTH CENTRAL NEBRASKA

CITY           SKY/WX    TMP DP  RH WIND       PRES   REMARKS
GRAND ISLAND   SUNNY     65  39  38 SW5       30.12S
AURORA         SUNNY     66  36  32 W5        30.11S
HASTINGS       SUNNY     66  40  38 CALM      30.12R
HEBRON         SUNNY     63  41  44 CALM      30.12S
HOLDREGE       SUNNY     65  36  33 S7        30.12S
KEARNEY *      SUNNY     63  39  42 S7        30.13S
YORK           SUNNY     64  37  36 W5        30.12S
$$

NEZ011>018-030>034-042>045-051600-
NORTHEAST NEBRASKA

CITY           SKY/WX    TMP DP  RH WIND       PRES   REMARKS
NORFOLK        SUNNY     63  44  50 CALM      30.09S
ALBION         SUNNY     65  40  40 SW8       30.10S
BLAIR          SUNNY     63  40  43 W5        30.09S
COLUMBUS *     SUNNY     63  39  42 W6        30.11S
FREMONT        SUNNY     60  45  57 CALM      30.10F
TEKAMAH        SUNNY     59  42  53 CALM      30.09R
WAYNE          SUNNY     65  44  46 SW3       30.09S
$$

NEZ050>053-065>068-078-088>093-051600-
SOUTHEAST NEBRASKA

CITY           SKY/WX    TMP DP  RH WIND       PRES   REMARKS
LINCOLN        SUNNY     65  42  43 CALM      30.11S
OMAHA EPPLEY   MOSUNNY   61  43  51 CALM      30.09S
BEATRICE       SUNNY     63  43  48 NW6       30.12R
FALLS CITY     SUNNY     62  46  55 CALM      30.09R
NEBRASKA CITY  SUNNY     62  42  46 CALM      30.10R
PLATTSMOUTH    SUNNY     64  43  47 CALM      30.10R
$$

NEZ044-045-051>053-067-051600-
OMAHA AREA

CITY           SKY/WX    TMP DP  RH WIND       PRES   REMARKS
OMAHA EPPLEY   MOSUNNY   61  43  51 CALM      30.09S
BLAIR          SUNNY     63  40  43 W5        30.09S
FREMONT        SUNNY     60  45  57 CALM      30.10F
MILLARD        SUNNY     63  43  48 CALM      30.09S
OFFUTT AFB     SUNNY     61  45  56 VRB3      30.08S
PLATTSMOUTH    SUNNY     64  43  47 CALM      30.10R
WAHOO          FAIR      63  40  43 CALM      30.10S
$$




USA.gov is the U.S. government's official web portal to all federal, state and local government web resources and services.